Weather History for South Pass, WY

Change the Weather History Date:

Tuesday, December 4, 2012

  Actual Average (KLND) Record (KLND)
Temperature  
Mean Temperature 24 °F 22 °F  
Max Temperature 33 °F 33 °F 62 °F (1979)
Min Temperature 17 °F 11 °F -25 °F (1909)
Degree Days  
Heating Degree Days 40 43  
Month to date heating degree days 170  
Since 1 July heating degree days 2043  
Cooling Degree Days 0 0  
Month to date cooling degree days 0  
Year to date cooling degree days 472  
Moisture  
Dew Point 19 °F    
Average Humidity 76    
Maximum Humidity 100    
Minimum Humidity 37    
Precipitation  
Precipitation 0.00 in 0.02 in 0.80 in (1906)
Month to date precipitation 0.09  
Year to date precipitation 12.17  
Snow  
Snow - 0.40 in - ()
Month to date snowfall 1.6  
Since 1 July snowfall 27.2  
Snow Depth -    
Sea Level Pressure  
Sea Level Pressure 30.15 in    
Wind  
Wind Speed 13 mph ()    
Max Wind Speed 34 mph    
Max Gust Speed 47 mph    
Visibility 7.4 miles    
Events Fog , Snow    
T = Trace of Precipitation, MM = Missing Value Source: Averaged Metar Reports

Daily Weather History Graph

Daily Weather History Graph

Search for Another Location

Airport:

Trip Planner

Search our weather history database for the weather conditions in past years. The results will help you decide how hot, cold, wet, or windy it might be!

Date:

Astronomy

Dec. 04, 2012 Rise Set
Actual Time 7:28 AM MST 4:42 PM MST
Civil Twilight 6:57 AM MST 5:13 PM MST
Nautical Twilight 6:21 AM MST 5:49 PM MST
Astronomical Twilight 5:47 AM MST 6:23 PM MST
Moon 10:37 PM MST (12/4) 11:20 AM MST (12/4)
Length of Visible Light 10h 16m
Length of Day
9h 13m
Waning Gibbous, 69% of the Moon is Illuminated
Dec 4
Waning Gibbous
Dec 6
Last Quarter
Dec 13
New
Dec 19
First Quarter
Dec 28
Full

Hourly Weather History & Observations

Time (MST) Temp. Windchill Dew Point Humidity Pressure Visibility Wind Dir Wind Speed Gust Speed Precip Events Conditions
12:15 AM 26.6 °F 15.7 °F 3.2 °F 37% - 10.0 mi West 12.7 mph - N/A   Clear
12:35 AM 24.8 °F 12.4 °F 5.0 °F 43% - 10.0 mi WSW 15.0 mph - N/A   Clear
12:55 AM 23.0 °F 11.1 °F 5.0 °F 46% - 10.0 mi West 12.7 mph - N/A   Clear
1:15 AM 26.6 °F 14.7 °F 5.0 °F 40% - 10.0 mi WSW 15.0 mph - N/A   Clear
1:35 AM 21.2 °F 8.3 °F 5.0 °F 50% - 10.0 mi West 13.8 mph - N/A   Clear
1:55 AM 23.0 °F 12.4 °F 5.0 °F 46% - 10.0 mi West 10.4 mph - N/A   Clear
2:15 AM 26.6 °F 16.2 °F 3.2 °F 37% - 10.0 mi WSW 11.5 mph - N/A   Clear
2:35 AM 24.8 °F 12.9 °F 3.2 °F 40% - 10.0 mi WSW 13.8 mph - N/A   Clear
2:55 AM 23.0 °F 9.6 °F 5.0 °F 46% - 10.0 mi WSW 16.1 mph - N/A   Clear
3:15 AM 23.0 °F 9.2 °F 5.0 °F 46% - 10.0 mi WSW 17.3 mph - N/A   Clear
3:35 AM 21.2 °F 8.3 °F 6.8 °F 54% - 10.0 mi West 13.8 mph - N/A   Clear
4:15 AM 23.0 °F 7.2 °F 8.6 °F 54% - 10.0 mi WSW 23.0 mph 28.8 mph N/A   Clear
4:35 AM 23.0 °F 8.3 °F 8.6 °F 54% - 10.0 mi West 19.6 mph 31.1 mph N/A   Clear
5:15 AM 23.0 °F 9.6 °F 12.2 °F 63% - 10.0 mi West 16.1 mph - N/A   Clear
5:35 AM 21.2 °F 7.3 °F 12.2 °F 68% - 10.0 mi West 16.1 mph - N/A   Clear
5:55 AM 23.0 °F 12.4 °F 12.2 °F 63% - 10.0 mi West 10.4 mph - N/A   Clear
6:15 AM 23.0 °F 13.9 °F 12.2 °F 63% - 10.0 mi West 8.1 mph - N/A   Clear
6:35 AM 21.2 °F 10.1 °F 12.2 °F 68% - 10.0 mi WSW 10.4 mph - N/A   Clear
6:55 AM 23.0 °F 11.7 °F 12.2 °F 63% - 10.0 mi WSW 11.5 mph - N/A   Clear
7:15 AM 23.0 °F 13.1 °F 10.4 °F 59% - 10.0 mi WSW 9.2 mph - N/A   Clear
7:35 AM 21.2 °F 12.6 °F 10.4 °F 63% - 10.0 mi SSW 6.9 mph - N/A   Clear
7:55 AM 19.4 °F 10.4 °F 10.4 °F 68% - 10.0 mi SSW 6.9 mph - N/A   Clear
8:15 AM 17.6 °F 5.7 °F 10.4 °F 73% - 10.0 mi SSW 10.4 mph - N/A   Clear
8:35 AM 17.6 °F 4.3 °F 10.4 °F 73% - 10.0 mi SW 12.7 mph - N/A   Clear
8:55 AM 19.4 °F 6.0 °F 12.2 °F 74% - 10.0 mi SSW 13.8 mph 20.7 mph N/A   Clear
9:15 AM 19.4 °F 3.6 °F 12.2 °F 74% - 10.0 mi South 19.6 mph 27.6 mph N/A   Clear
9:35 AM 19.4 °F 6.6 °F 14.0 °F 80% - 10.0 mi South 12.7 mph 25.3 mph N/A   Clear
9:55 AM 21.2 °F 10.9 °F 15.8 °F 80% - 10.0 mi South 9.2 mph 16.1 mph N/A   Clear
10:15 AM 28.4 °F 17.0 °F 14.0 °F 55% - 10.0 mi WSW 15.0 mph 26.5 mph N/A   Clear
10:35 AM 30.2 °F 22.6 °F 15.8 °F 55% - 10.0 mi SSW 8.1 mph 21.9 mph N/A   Scattered Clouds
10:55 AM 32.0 °F 24.8 °F 19.4 °F 60% - 10.0 mi SSW 8.1 mph 19.6 mph N/A   Scattered Clouds
11:15 AM 26.6 °F 14.3 °F 19.4 °F 74% - 10.0 mi SSE 16.1 mph 21.9 mph N/A   Mostly Cloudy
11:35 AM 32.0 °F 19.8 °F 23.0 °F 69% - 7.0 mi WSW 20.7 mph 33.4 mph N/A   Scattered Clouds
11:55 AM 32.0 °F 17.4 °F 26.6 °F 80% - 1.0 mi WSW 31.1 mph 46.0 mph N/A Snow Light Snow
12:15 PM 32.0 °F 16.7 °F 26.6 °F 80% - 1.0 mi WSW 34.5 mph 47.2 mph N/A Snow Light Snow
12:35 PM 32.0 °F 17.4 °F 26.6 °F 80% - 2.5 mi WSW 31.1 mph 39.1 mph N/A   Haze
12:55 PM 32.0 °F 18.9 °F 24.8 °F 75% 30.15 in 7.0 mi WSW 24.2 mph 32.2 mph N/A   Clear
1:15 PM 32.0 °F 19.8 °F 24.8 °F 75% 30.14 in 10.0 mi WSW 20.7 mph 28.8 mph N/A   Clear
1:35 PM 30.2 °F 18.9 °F 23.0 °F 75% 30.15 in 10.0 mi WSW 16.1 mph 24.2 mph N/A   Scattered Clouds
1:55 PM 30.2 °F 18.9 °F 23.0 °F 75% 30.15 in 10.0 mi SW 16.1 mph 24.2 mph N/A   Overcast
2:15 PM 28.4 °F 18.5 °F 24.8 °F 86% 30.14 in 10.0 mi SSW 11.5 mph 19.6 mph N/A   Overcast
2:35 PM 28.4 °F 16.2 °F 24.8 °F 86% 30.13 in 10.0 mi SW 17.3 mph 23.0 mph N/A   Overcast
2:55 PM 28.4 °F 16.2 °F 24.8 °F 86% 30.15 in 10.0 mi SW 17.3 mph 23.0 mph N/A   Overcast
3:15 PM 26.6 °F 16.8 °F 24.8 °F 93% 30.16 in 10.0 mi SSW 10.4 mph 19.6 mph N/A   Overcast
3:35 PM 26.6 °F 18.2 °F 24.8 °F 93% 30.18 in 10.0 mi SSW 8.1 mph - N/A   Overcast
3:55 PM 26.6 °F 19.1 °F 24.8 °F 93% 30.19 in 10.0 mi SSW 6.9 mph - N/A   Overcast
4:15 PM 26.6 °F 19.1 °F 26.6 °F 100% 30.19 in 10.0 mi SSW 6.9 mph - N/A   Overcast
4:35 PM 26.6 °F 21.2 °F 26.6 °F 100% 30.19 in 10.0 mi SSW 4.6 mph - N/A   Overcast
4:55 PM 26.6 °F 20.0 °F 26.6 °F 100% 30.19 in 10.0 mi SW 5.8 mph - N/A   Overcast
5:15 PM 28.4 °F 20.4 °F 26.6 °F 93% 30.18 in 10.0 mi SW 8.1 mph - N/A   Overcast
5:35 PM 28.4 °F 24.6 °F 26.6 °F 93% 30.19 in 10.0 mi SSW 3.5 mph - N/A   Overcast
6:15 PM 28.4 °F 22.2 °F 26.6 °F 93% 30.18 in 10.0 mi South 5.8 mph - N/A   Overcast
6:35 PM 26.6 °F 21.2 °F 26.6 °F 100% 30.19 in 0.5 mi South 4.6 mph - N/A Fog Light Freezing Fog
7:15 PM 26.6 °F 18.2 °F 26.6 °F 100% 30.18 in 0.2 mi South 8.1 mph - N/A Fog Light Freezing Fog
7:35 PM 26.6 °F 19.1 °F 26.6 °F 100% 30.18 in 0.2 mi South 6.9 mph - N/A Fog Light Freezing Fog
7:55 PM 26.6 °F 17.5 °F 26.6 °F 100% 30.18 in 0.2 mi South 9.2 mph - N/A Fog Light Freezing Fog
8:15 PM 26.6 °F 20.0 °F 26.6 °F 100% 30.18 in 0.2 mi South 5.8 mph - N/A Fog Light Freezing Fog
8:35 PM 28.4 °F 22.2 °F 28.4 °F 100% 30.17 in 0.2 mi SSE 5.8 mph - N/A Fog Light Freezing Fog
9:15 PM 28.4 °F 21.2 °F 28.4 °F 100% 30.16 in 0.2 mi South 6.9 mph - N/A Fog Light Freezing Fog
9:35 PM 30.2 °F 22.6 °F 30.2 °F 100% 30.14 in 0.2 mi SSW 8.1 mph 16.1 mph N/A Fog Light Freezing Fog
9:55 PM 32.0 °F 22.1 °F 32.0 °F 100% 30.12 in 0.2 mi SSW 13.8 mph 18.4 mph N/A Snow Light Snow
10:15 PM 32.0 °F 23.6 °F 32.0 °F 100% 30.12 in 0.2 mi SW 10.4 mph 21.9 mph N/A Fog Light Freezing Fog
10:35 PM 32.0 °F 20.5 °F 32.0 °F 100% 30.11 in 0.2 mi SW 18.4 mph 25.3 mph N/A Fog Light Freezing Fog
10:55 PM 32.0 °F 20.5 °F 32.0 °F 100% 30.09 in 0.2 mi SW 18.4 mph 25.3 mph N/A Snow Light Snow
11:15 PM 32.0 °F 19.8 °F 32.0 °F 100% 30.08 in 0.8 mi SW 20.7 mph 29.9 mph N/A Snow Light Snow
11:35 PM 32.0 °F 18.9 °F 32.0 °F 100% 30.05 in 4.0 mi WSW 24.2 mph 35.7 mph N/A   Mostly Cloudy
11:55 PM 33.8 °F 20.8 °F 33.8 °F 100% 30.02 in 2.0 mi WSW 26.5 mph 38.0 mph N/A   Overcast